Temperature
16 16 16 15 16 15 15 15 15 15 15 15 15 15 15 15 15 15 15 16 16 16 16 16 16 16 16 16 16 16 16 17 17 16 17 16 16 17 17 17 17 17 17
16 16 16 15 15 15 15 15 15 15 15 15 15 15 15 15 15 15 15 15 15 15 16 16 16 16 16 16 16 16 16 16 16 16 16 16 16 17 17 17 17 17 17
16 16 16 16 15 15 15 15 15 15 15 15 15 15 15 15 15 15 15 15 15 15 15 15 15 16 16 16 16 16 16 16 16 16 16 16 16 16 16 16 16 17 17
16 15 15 15 15 15 15 15 15 15 15 15 15 15 15 15 15 15 15 15 15 15 15 15 15 15 16 16 16 16 16 16 16 16 16 16 16 16 16 16 16 16 16
15 15 15 15 15 15 15 15 15 15 15 15 15 15 15 15 14 14 14 14 15 15 15 15 15 15 15 15 15 15 15 15 16 16 16 16 16 16 16 16 16 16 16
15 15 15 15 15 15 15 15 15 15 15 15 15 15 14 14 14 14 14 14 15 15 15 15 15 15 15 15 15 15 15 15 15 15 15 15 16 16 16 16 16 16 16
15 15 15 15 15 15 15 15 15 15 15 14 15 14 14 14 14 14 14 14 14 14 14 15 15 14 14 15 15 15 15 15 15 15 15 15 15 15 15 16 16 16 16
15 15 15 15 15 15 15 15 15 15 15 15 15 15 15 15 14 14 14 14 14 14 14 14 14 14 14 14 14 15 15 15 15 15 15 15 15 15 15 15 15 15 15
15 15 15 15 15 15 15 15 15 15 15 15 15 15 16 16 15 14 14 14 14 14 14 14 14 14 14 14 14 14 15 15 15 15 15 15 15 15 15 15 15 15 15
15 15 15 15 15 15 15 15 15 15 15 15 15 15 15 15 15 15 14 14 14 14 14 14 14 14 14 14 14 14 15 15 15 15 14 14 14 14 14 15 14 14 14
15 15 15 15 15 15 15 15 15 15 15 15 15 15 14 15 15 15 15 14 14 13 14 14 13 14 14 14 14 14 14 14 14 14 14 14 14 14 14 14 14 14 14
15 15 15 15 15 15 15 15 15 15 15 15 15 15 15 15 15 15 15 14 14 13 13 14 13 14 14 14 14 14 14 14 14 14 14 14 14 14 14 14 14 14 14
15 15 15 15 15 15 15 15 15 15 15 15 15 15 15 15 15 15 15 15 14 14 13 13 13 13 14 14 14 14 14 14 14 14 14 14 14 14 14 14 14 14 14
15 15 15 15 15 15 15 15 15 15 15 15 15 15 15 15 15 14 14 14 15 14 14 13 13 13 13 13 14 14 14 14 14 14 14 14 14 14 14 14 14 14 14
15 15 15 15 15 15 15 15 15 15 15 15 15 15 15 15 15 14 14 14 15 15 14 13 13 13 13 13 13 13 13 14 14 14 14 14 14 13 13 13 13 13 13
15 15 15 15 15 15 15 15 15 15 15 15 15 15 15 15 14 14 14 14 14 14 14 14 13 13 13 13 13 13 13 13 13 13 13 13 13 13 13 13 13 13 13
15 15 15 15 15 15 15 15 15 15 15 15 15 15 15 15 14 14 14 14 14 14 14 13 13 13 13 13 13 13 13 13 13 13 13 13 13 13 13 13 13 13 13
15 15 15 15 15 15 15 15 15 15 15 15 15 15 15 15 14 14 14 14 14 14 14 14 13 13 13 13 13 13 13 13 13 13 13 13 13 13 13 13 13 13 12
15 15 15 15 15 15 15 15 15 15 15 15 15 15 14 14 14 14 14 14 14 14 14 14 13 13 13 13 13 13 13 13 13 13 13 13 13 13 12 12 12 12 12
15 15 15 15 15 15 15 15 15 15 15 15 15 15 14 14 14 14 14 14 14 14 14 13 13 13 13 13 13 13 13 13 12 12 12 12 12 12 12 12 12 12 12
15 15 15 15 15 15 15 15 15 15 15 14 15 15 15 15 14 14 14 14 14 14 13 13 13 13 13 13 13 13 13 12 12 12 12 12 12 12 12 12 12 12 11
15 15 15 15 15 15 15 15 15 15 15 15 14 14 14 14 14 14 14 14 14 14 13 13 13 13 13 13 13 12 12 12 12 12 12 12 12 11 11 11 11 11 11
15 15 15 15 15 15 15 15 15 15 14 14 14 14 14 14 14 14 14 14 14 14 14 13 13 13 12 12 12 12 12 12 12 12 12 11 11 11 11 11 11 11 11
15 15 15 15 15 15 15 15 15 15 14 14 14 14 14 14 14 14 14 14 13 13 13 13 13 13 13 12 12 12 12 12 12 11 11 11 11 11 11 11 11 11 11
15 15 15 15 15 15 15 15 15 14 14 14 14 14 14 14 14 14 14 13 13 13 13 13 13 13 12 12 12 12 11 11 11 11 11 10 10 10 10 10 11 11 10
15 15 15 15 15 15 15 15 15 14 14 14 14 14 14 14 14 14 13 13 13 12 12 12 12 12 12 12 12 11 11 10 10 10 10 10 10 10 10 10 10 10 10
Wind_Speed
3 4 4 4 4 4 5 5 5 7 7 8 8 8 9 9 9 9 10 16 16 16 15 15 14 15 15 15 15 15 15 14 14 14 15 15 14 12 10 8 8 7 6
3 3 4 4 4 4 5 5 6 6 6 7 8 8 8 8 9 8 9 11 15 16 17 16 16 16 16 15 15 15 15 15 15 15 16 17 17 15 13 11 10 10 9
3 3 3 4 4 4 5 5 6 6 6 6 7 7 8 8 8 9 9 8 9 14 16 17 17 16 16 16 16 16 15 15 15 15 16 16 17 17 15 14 12 11 11
4 4 3 3 4 4 4 4 4 5 5 5 6 6 6 6 8 8 8 9 9 9 13 16 16 17 17 17 17 16 16 15 15 15 15 16 16 17 16 15 14 12 12
4 4 3 3 4 3 3 4 4 4 5 5 6 5 5 5 6 7 8 9 10 10 10 11 13 16 17 18 18 17 16 16 15 15 16 16 16 17 17 17 16 14 14
4 4 3 3 3 3 3 4 5 4 4 4 5 6 5 5 5 6 7 8 9 10 10 10 9 11 15 17 18 17 16 16 15 15 16 16 17 17 17 18 17 17 16
3 4 2 3 2 3 4 5 5 6 4 3 3 4 5 5 6 5 6 6 7 8 9 10 10 9 9 13 17 17 16 16 16 16 17 17 16 16 17 17 18 17 17
3 3 2 2 2 3 4 4 4 3 3 1 0 1 2 3 4 5 5 5 6 7 8 9 10 9 10 10 13 17 17 16 16 16 17 17 17 17 17 18 18 17 17
3 3 3 2 2 3 3 3 3 3 2 2 1 2 1 1 2 3 4 4 5 5 6 7 9 9 10 10 10 15 17 16 16 16 17 17 17 17 17 17 18 18 18
3 3 3 2 3 2 3 3 2 1 1 1 1 1 2 2 0 2 3 4 4 5 6 6 7 9 10 9 11 14 16 16 16 17 17 17 17 17 17 17 18 18 18
3 3 2 2 2 2 2 2 2 1 1 0 0 1 1 1 1 0 2 2 3 4 4 5 6 7 9 9 10 13 14 15 15 16 17 17 17 17 17 17 17 18 18
3 3 2 2 2 2 2 2 2 1 0 0 0 0 0 0 0 1 1 2 3 3 4 4 5 6 7 8 10 12 13 14 14 15 16 16 16 16 16 16 16 17 17
3 3 2 2 3 3 3 2 2 1 1 1 1 0 1 1 1 1 1 2 2 2 2 3 4 5 6 6 8 9 11 12 13 14 15 15 15 15 16 16 16 16 16
3 3 3 3 3 3 3 2 2 2 2 2 2 1 1 1 1 1 1 1 2 2 2 3 3 5 5 6 7 6 9 11 12 12 13 14 14 14 15 15 15 15 14
3 4 3 3 3 3 2 2 2 2 2 2 2 2 2 2 1 1 1 1 1 1 2 3 2 4 4 5 5 6 7 10 10 11 12 12 12 13 13 14 14 14 14
4 4 4 4 4 3 3 2 2 2 2 3 2 2 2 2 2 1 1 1 1 1 2 2 2 2 3 4 5 5 6 7 8 9 9 10 10 10 11 12 12 13 13
5 4 4 3 4 3 3 3 2 3 2 3 3 3 3 2 2 2 1 1 1 1 2 2 2 2 2 3 4 4 4 4 6 7 7 8 8 9 9 9 10 11 12
5 4 4 4 3 3 3 3 3 2 2 3 3 3 3 2 2 2 1 2 1 1 1 2 1 1 2 2 3 2 3 3 3 5 5 5 6 6 7 7 8 9 10
5 5 4 4 4 3 3 3 3 2 3 3 2 2 3 3 2 2 2 1 1 2 1 1 1 1 1 1 2 1 2 2 2 3 3 3 3 4 4 5 6 7 8
5 5 4 4 3 3 3 3 3 3 3 3 3 2 2 2 2 2 2 2 2 2 2 1 1 1 1 1 1 2 2 2 2 1 2 1 1 1 1 2 4 5 5
5 5 4 4 3 3 2 2 3 2 3 3 3 3 3 4 6 4 2 1 1 1 1 0 0 1 1 1 2 2 3 3 2 1 2 2 1 2 1 1 1 2 3
5 5 4 4 3 2 2 1 1 3 2 2 3 3 3 3 3 3 3 4 3 1 0 0 1 1 2 2 2 2 3 3 3 2 4 4 2 3 3 3 2 1 1
6 5 4 4 3 3 4 2 2 1 2 2 2 2 2 2 2 2 3 4 2 1 1 2 2 2 3 3 3 3 3 4 4 3 4 4 3 3 3 3 1 1 2
6 5 4 4 3 3 4 4 3 3 2 2 1 1 2 2 2 1 1 1 1 1 0 1 2 2 3 3 3 4 5 5 5 2 2 4 4 4 4 3 1 2 3
6 5 5 4 4 4 5 4 4 3 3 2 2 1 1 1 4 1 1 1 1 1 3 2 2 2 3 3 3 3 3 4 4 3 2 4 5 6 5 4 2 3 3
6 5 5 4 4 3 5 4 5 3 3 2 2 2 3 2 4 0 1 0 1 1 0 1 1 1 1 0 1 3 3 4 5 4 2 3 5 5 5 3 3 4 4
Wind_Direction
96 101 100 94 92 91 97 89 92 89 83 77 72 69 69 65 58 61 67 57 49 47 45 44 42 41 40 37 36 36 37 39 39 35 30 25 23 24 25 27 30 26 25
102 103 104 101 98 95 92 101 98 95 86 81 76 70 66 67 62 61 62 67 60 50 43 42 42 42 40 39 38 38 39 39 39 36 33 30 29 33 36 38 38 37 39
108 114 105 110 111 110 107 98 97 98 96 90 81 71 66 60 61 58 55 50 59 60 50 41 41 40 39 39 40 39 40 41 39 36 34 33 32 35 37 36 35 41 47
109 108 106 107 115 117 113 108 108 103 99 89 78 69 70 63 59 56 56 53 48 48 56 48 43 39 38 37 38 38 40 42 40 37 36 35 35 37 37 34 36 46 53
106 110 101 112 120 122 121 118 109 108 103 96 89 78 70 64 55 54 55 54 53 47 47 56 53 44 37 35 35 36 41 42 42 39 38 37 37 37 37 38 43 52 56
89 99 113 124 126 134 128 123 114 104 101 102 96 87 76 72 62 55 53 56 51 47 41 38 44 51 45 37 33 35 40 42 44 42 41 41 41 41 41 43 49 56 58
95 97 110 110 128 131 137 139 132 128 120 122 119 110 95 74 66 60 52 50 55 49 46 42 39 36 45 47 37 33 36 40 43 44 45 45 44 45 46 47 51 54 56
86 95 102 114 129 130 141 140 148 141 133 164 224 166 142 120 76 62 62 53 47 50 45 43 42 39 37 41 43 34 31 36 43 45 46 47 48 49 51 52 52 53 53
78 81 91 102 116 137 144 153 161 157 161 158 6 335 337 74 102 82 61 60 52 48 47 43 42 42 43 43 41 38 31 34 41 45 47 48 49 50 51 53 54 53 53
86 74 84 98 119 125 140 150 148 164 182 185 129 17 6 32 314 122 99 74 60 53 47 43 44 45 44 47 49 42 34 34 40 44 47 48 49 49 50 52 52 52 51
99 93 90 104 112 116 129 143 149 182 184 226 149 119 76 103 319 44 102 94 80 63 50 43 45 45 46 48 47 43 38 38 42 43 44 46 47 49 52 53 53 54 52
122 110 104 103 109 113 121 131 142 143 143 105 280 235 244 332 87 68 99 104 88 74 61 50 48 48 50 50 51 46 44 43 45 45 45 45 46 48 49 51 53 53 51
135 121 117 110 105 104 111 118 129 125 124 128 148 81 44 41 33 40 92 98 98 93 78 67 54 53 54 54 53 45 53 48 47 46 46 45 46 46 47 49 49 49 48
140 130 125 116 115 119 121 112 106 103 102 105 101 104 96 78 79 71 71 110 118 106 90 74 62 52 52 55 52 45 59 55 50 48 47 47 47 47 47 47 47 46 46
141 137 134 133 124 123 123 117 102 100 95 98 106 113 103 94 83 75 66 340 344 81 85 73 60 52 52 57 47 55 60 60 54 50 49 49 49 48 48 46 45 44 44
147 147 151 143 137 135 131 119 106 93 111 96 84 100 101 99 86 82 61 8 351 13 63 70 64 61 55 60 59 58 65 75 65 55 51 50 49 48 48 45 43 41 42
160 153 154 147 138 134 130 126 116 116 112 113 113 106 101 90 99 99 83 65 49 56 90 80 73 76 74 53 60 57 58 60 67 64 52 50 48 47 46 44 41 39 37
157 151 150 141 129 124 118 124 125 124 109 104 104 109 109 112 101 89 82 83 84 80 93 88 67 52 42 40 36 36 50 56 62 73 60 51 47 48 45 43 40 38 36
162 160 156 151 143 137 131 133 131 122 113 105 100 99 106 115 110 98 90 83 89 94 93 105 70 44 21 33 22 16 39 40 44 85 85 63 50 46 41 39 38 37 36
170 168 159 155 149 151 147 140 131 126 118 106 97 90 86 84 82 92 91 87 96 102 101 100 86 54 25 6 333 349 356 360 340 15 31 22 62 83 49 39 34 31 30
171 167 161 155 148 154 156 166 148 144 132 120 113 103 84 58 37 35 34 60 90 96 103 84 44 356 356 346 344 330 332 325 316 338 324 325 330 335 334 179 28 12 16
168 165 167 156 149 145 95 9 261 159 142 132 119 112 111 113 110 103 56 36 17 9 15 344 321 323 340 343 333 306 317 317 317 349 316 312 316 320 329 343 30 6 327
166 164 163 157 157 130 122 150 260 169 135 117 111 114 107 102 142 125 134 165 135 77 319 304 303 328 332 344 318 308 312 309 305 324 313 301 308 310 320 346 54 292 283
164 163 159 160 155 134 135 155 191 169 133 121 106 108 136 127 97 79 124 119 92 88 97 262 310 335 343 339 306 297 302 298 292 282 285 296 311 311 314 312 194 259 270
167 164 157 160 161 149 143 165 199 160 155 138 115 90 106 118 79 20 175 119 103 99 104 98 23 13 20 3 321 294 300 299 303 307 312 298 311 310 297 284 250 217 249
169 163 156 165 170 161 138 167 218 173 168 154 131 112 71 56 77 29 214 229 293 347 21 131 177 206 260 197 238 284 301 299 306 309 353 310 312 319 303 297 312 307 290
Height
1561 1561 1561 1560 1560 1560 1560 1560 1560 1560 1560 1560 1560 1559 1559 1558 1558 1557 1556 1555 1554 1553 1552 1550 1549 1547 1545 1543 1540 1537 1533 1531 1530 1528 1526 1522 1517 1512 1511 1511 1513 1513 1512
1561 1562 1562 1562 1562 1562 1562 1562 1562 1562 1562 1561 1561 1561 1560 1560 1559 1559 1558 1557 1556 1554 1553 1552 1550 1549 1546 1544 1542 1539 1537 1534 1532 1530 1527 1524 1519 1514 1511 1512 1513 1512 1512
1562 1563 1563 1563 1563 1563 1563 1563 1563 1563 1563 1563 1563 1562 1562 1561 1561 1560 1560 1559 1558 1556 1555 1553 1552 1550 1548 1546 1544 1541 1539 1536 1534 1532 1529 1526 1522 1518 1515 1514 1513 1512 1511
1563 1563 1564 1564 1564 1564 1564 1564 1564 1565 1564 1564 1564 1564 1563 1563 1562 1562 1561 1560 1559 1558 1556 1555 1553 1552 1550 1547 1545 1543 1540 1538 1536 1534 1531 1528 1525 1521 1518 1515 1511 1511 1511
1564 1564 1564 1564 1565 1565 1565 1565 1566 1566 1566 1565 1565 1565 1565 1564 1564 1563 1563 1562 1561 1560 1558 1556 1555 1553 1551 1549 1547 1545 1542 1540 1538 1535 1533 1530 1527 1524 1520 1515 1512 1511 1512
1565 1565 1565 1565 1565 1565 1566 1566 1566 1566 1566 1566 1567 1566 1566 1566 1565 1565 1564 1563 1562 1561 1560 1558 1557 1555 1553 1551 1549 1546 1544 1542 1540 1537 1535 1532 1529 1526 1523 1519 1515 1515 1516
1565 1565 1565 1566 1566 1566 1566 1567 1567 1567 1567 1568 1568 1568 1568 1567 1567 1566 1565 1565 1564 1563 1562 1560 1559 1557 1556 1553 1551 1548 1546 1544 1542 1539 1537 1534 1532 1529 1526 1524 1521 1520 1520
1566 1566 1566 1566 1566 1566 1567 1567 1567 1568 1568 1568 1569 1569 1569 1571 1568 1568 1567 1566 1566 1565 1563 1562 1561 1559 1557 1556 1553 1551 1548 1546 1544 1542 1540 1537 1535 1533 1530 1528 1526 1525 1524
1566 1566 1566 1567 1566 1567 1567 1568 1568 1569 1569 1569 1570 1570 1570 1570 1570 1570 1568 1568 1567 1566 1565 1564 1563 1561 1559 1558 1556 1554 1551 1549 1547 1544 1542 1540 1538 1536 1534 1532 1530 1529 1528
1567 1567 1567 1567 1567 1567 1568 1568 1569 1569 1569 1570 1570 1569 1570 1570 1571 1571 1571 1570 1568 1567 1567 1566 1564 1563 1561 1560 1558 1556 1554 1552 1550 1548 1545 1543 1541 1539 1538 1536 1534 1533 1531
1567 1567 1567 1567 1568 1568 1568 1568 1569 1569 1569 1570 1570 1570 1570 1570 1571 1571 1571 1571 1570 1569 1568 1567 1566 1565 1563 1562 1560 1559 1557 1555 1553 1550 1548 1546 1545 1543 1541 1539 1537 1536 1534
1568 1568 1568 1568 1568 1569 1569 1569 1569 1569 1569 1570 1570 1571 1571 1571 1571 1571 1571 1571 1571 1571 1569 1568 1567 1566 1565 1564 1562 1561 1559 1558 1555 1553 1551 1549 1547 1546 1544 1542 1540 1538 1537
1568 1568 1569 1569 1569 1569 1569 1569 1569 1569 1570 1570 1570 1570 1571 1571 1571 1571 1572 1572 1572 1572 1571 1570 1569 1568 1567 1566 1564 1563 1561 1560 1558 1556 1554 1552 1550 1549 1547 1545 1543 1541 1539
1569 1569 1569 1570 1570 1570 1570 1570 1570 1570 1570 1570 1570 1570 1570 1571 1571 1571 1572 1572 1572 1573 1572 1572 1570 1569 1568 1567 1566 1564 1563 1562 1560 1558 1556 1554 1553 1551 1549 1547 1545 1543 1541
1569 1569 1570 1570 1570 1570 1570 1571 1570 1570 1570 1570 1570 1570 1571 1571 1571 1571 1571 1572 1573 1573 1573 1572 1572 1570 1569 1568 1567 1566 1565 1563 1562 1560 1558 1557 1555 1553 1551 1549 1547 1544 1542
1569 1570 1571 1571 1571 1571 1571 1571 1571 1571 1571 1571 1571 1571 1571 1572 1571 1571 1572 1572 1572 1573 1573 1573 1572 1571 1570 1569 1568 1567 1566 1564 1563 1562 1560 1558 1556 1554 1552 1550 1548 1546 1543
1570 1570 1571 1572 1572 1572 1572 1571 1572 1572 1572 1572 1572 1572 1572 1572 1572 1572 1572 1572 1572 1573 1573 1573 1572 1572 1571 1570 1569 1568 1567 1566 1564 1563 1561 1560 1558 1556 1554 1552 1549 1547 1544
1570 1571 1571 1572 1572 1572 1572 1572 1572 1573 1573 1573 1573 1573 1573 1572 1573 1573 1573 1573 1573 1573 1573 1573 1573 1572 1571 1571 1570 1569 1568 1567 1565 1564 1562 1560 1559 1557 1555 1553 1550 1548 1545
1570 1571 1572 1572 1573 1573 1573 1573 1573 1573 1574 1574 1574 1574 1574 1574 1574 1574 1573 1573 1573 1573 1573 1573 1573 1572 1572 1571 1570 1569 1568 1567 1566 1564 1562 1561 1559 1557 1555 1553 1551 1548 1546
1570 1571 1572 1572 1573 1573 1573 1574 1574 1574 1574 1574 1574 1574 1574 1574 1575 1574 1574 1573 1573 1573 1573 1573 1573 1573 1572 1571 1570 1569 1569 1567 1566 1564 1562 1561 1559 1557 1555 1553 1551 1549 1546
1569 1570 1571 1572 1572 1573 1574 1574 1575 1575 1575 1575 1575 1575 1575 1574 1574 1574 1574 1574 1574 1574 1574 1573 1573 1573 1572 1571 1570 1569 1568 1567 1565 1564 1562 1561 1559 1557 1555 1552 1550 1548 1546
1569 1570 1571 1572 1572 1573 1573 1574 1574 1575 1575 1575 1575 1575 1575 1575 1574 1574 1574 1573 1573 1574 1574 1573 1573 1573 1572 1571 1569 1568 1567 1566 1565 1564 1562 1560 1558 1556 1554 1552 1550 1548 1546
1568 1569 1570 1571 1572 1572 1573 1573 1574 1575 1575 1575 1576 1576 1575 1575 1574 1574 1574 1573 1573 1573 1573 1573 1572 1572 1571 1570 1569 1568 1567 1565 1564 1562 1560 1559 1558 1555 1553 1551 1549 1547 1545
1566 1568 1569 1570 1571 1572 1573 1573 1574 1574 1575 1575 1575 1575 1575 1575 1574 1574 1574 1574 1573 1572 1572 1571 1571 1570 1569 1568 1567 1567 1565 1564 1562 1561 1559 1558 1556 1554 1552 1550 1547 1545 1543
1565 1567 1568 1569 1570 1571 1572 1572 1573 1574 1574 1574 1574 1574 1574 1574 1574 1574 1574 1573 1573 1572 1571 1570 1569 1569 1568 1567 1566 1565 1563 1562 1561 1560 1557 1556 1554 1552 1550 1548 1545 1543 1541
1563 1565 1567 1568 1569 1570 1571 1572 1572 1573 1573 1573 1573 1573 1573 1573 1573 1573 1573 1572 1572 1571 1570 1569 1568 1567 1566 1565 1564 1563 1562 1561 1560 1559 1556 1554 1552 1550 1548 1546 1544 1541 1539